Mattaponi, VA

2:53 PM EST on January 21, 2017 (GMT -0500)
West Point

Weather History for KFYJ - May, 2013

Change the Weather History Date:

Wednesday, May 8, 2013

  Actual Average (KJGG) Record (KJGG)
Temperature  
Mean Temperature 60 °F -  
Max Temperature 70 °F 77 °F 93 °F (2014)
Min Temperature 50 °F 49 °F 35 °F (1989)
Degree Days  
Heating Degree Days 5    
Growing Degree Days 10 (Base 50)    
Moisture  
Dew Point 58 °F    
Average Humidity 93    
Maximum Humidity 100    
Minimum Humidity 64    
Precipitation  
Precipitation 0.30 in - - ()
Sea Level Pressure  
Sea Level Pressure 29.98 in    
Wind  
Wind Speed 2 mph (SE)    
Max Wind Speed 9 mph    
Max Gust Speed -    
Visibility 8 miles    
Events      
Averages and records for this station are not official NWS values.
T = Trace of Precipitation, MM = Missing Value Source: NWS Daily Summary

Daily Weather History Graph

Daily Weather History Graph

Search for Another Location

Airport or City:

Trip Planner

Search our weather history database for the weather conditions in past years. The results will help you decide how hot, cold, wet, or windy it might be!

Date:

Astronomy

May. 08, 2013 Rise Set
Actual Time 6:04 AM EDT 8:03 PM EDT
Civil Twilight 5:35 AM EDT 8:32 PM EDT
Nautical Twilight 5:00 AM EDT 9:07 PM EDT
Astronomical Twilight 4:22 AM EDT 9:45 PM EDT
Moon 5:09 AM EDT (5/8) 7:00 PM EDT (5/8)
Length of Visible Light 14h 56m
Length of Day
13h 59m
Waning Crescent, 2% of the Moon is Illuminated
May 8
Waning Crescent
May 9
New
May 18
First Quarter
May 25
Full
May 31
Last Quarter

Hourly Weather History & Observations

Time (EDT) Temp. Dew Point Humidity Pressure Visibility Wind Dir Wind Speed Gust Speed Precip Events Conditions
12:15 AM 57.2 °F 57.2 °F 100% 29.99 in 7.0 mi Calm Calm - N/A   Mostly Cloudy
12:35 AM 57.6 °F 57.6 °F 100% 29.99 in 7.0 mi Calm Calm - N/A   Overcast
12:55 AM 57.7 °F 57.7 °F 100% 29.99 in 7.0 mi Calm Calm - N/A   Overcast
1:15 AM 57.4 °F 57.4 °F 100% 29.98 in 5.0 mi Calm Calm - N/A   Scattered Clouds
1:35 AM 56.1 °F 56.1 °F 100% 29.97 in 4.0 mi Calm Calm - N/A   Clear
1:55 AM 56.3 °F 56.3 °F 100% 29.97 in 5.0 mi ENE 3.5 mph - N/A   Clear
2:15 AM 56.1 °F 56.1 °F 100% 29.96 in 5.0 mi Calm Calm - N/A   Clear
2:35 AM 54.9 °F 54.9 °F 100% 29.96 in 7.0 mi Calm Calm - N/A   Clear
2:55 AM 56.1 °F 56.1 °F 100% 29.96 in 10.0 mi Calm Calm - N/A   Clear
3:15 AM 54.9 °F 54.9 °F 100% 29.96 in 10.0 mi Calm Calm - N/A   Clear
3:35 AM 54.9 °F 54.9 °F 100% 29.96 in 7.0 mi Calm Calm - N/A   Clear
3:55 AM 53.4 °F 53.4 °F 100% 29.95 in 5.0 mi Calm Calm - N/A   Clear
4:15 AM 53.4 °F 53.4 °F 100% 29.95 in 10.0 mi ENE 3.5 mph - N/A   Clear
4:35 AM 53.4 °F 53.4 °F 100% 29.96 in 10.0 mi Calm Calm - N/A   Clear
4:55 AM 52.9 °F 52.9 °F 100% 29.96 in 7.0 mi Calm Calm - N/A   Clear
5:15 AM 51.6 °F 51.6 °F 100% 29.96 in 4.0 mi Calm Calm - N/A   Clear
5:35 AM 50.9 °F 50.9 °F 100% 29.96 in 7.0 mi ENE 4.6 mph - N/A   Clear
5:55 AM 51.8 °F 51.8 °F 100% 29.96 in 10.0 mi Calm Calm - N/A   Clear
6:15 AM 52.0 °F 52.0 °F 100% 29.97 in 5.0 mi Calm Calm - N/A   Clear
6:35 AM 51.1 °F 51.1 °F 100% 29.98 in 2.0 mi Calm Calm - N/A   Clear
6:55 AM 52.5 °F 52.5 °F 100% 29.99 in 10.0 mi Calm Calm - N/A   Clear
7:15 AM 55.0 °F 55.0 °F 100% 29.99 in 10.0 mi Calm Calm - N/A   Clear
7:35 AM 57.7 °F 57.7 °F 100% 30.00 in 10.0 mi SSE 3.5 mph - N/A   Clear
7:55 AM 59.0 °F 59.0 °F 100% 30.00 in 10.0 mi SE 4.6 mph - N/A   Scattered Clouds
8:15 AM 60.1 °F 60.1 °F 100% 30.01 in 10.0 mi SE 4.6 mph - N/A   Mostly Cloudy
8:35 AM 59.9 °F 59.5 °F 99% 30.02 in 10.0 mi SE 5.8 mph - N/A   Mostly Cloudy
8:55 AM 60.1 °F 58.8 °F 96% 30.02 in 10.0 mi SSE 6.9 mph - N/A   Scattered Clouds
9:15 AM 61.3 °F 59.0 °F 92% 30.02 in 10.0 mi SSW 5.8 mph - N/A   Scattered Clouds
9:35 AM 60.8 °F 58.5 °F 92% 30.03 in 10.0 mi SW 3.5 mph - N/A   Scattered Clouds
9:55 AM 61.5 °F 58.5 °F 90% 30.03 in 10.0 mi Calm Calm - N/A   Clear
10:15 AM 62.2 °F 58.6 °F 88% 30.03 in 10.0 mi WSW 3.5 mph - N/A   Clear
10:35 AM 63.0 °F 57.4 °F 82% 30.03 in 10.0 mi SW 4.6 mph - N/A   Scattered Clouds
10:55 AM 63.9 °F 57.2 °F 79% 30.03 in 10.0 mi South 3.5 mph - N/A   Mostly Cloudy
11:15 AM 64.4 °F 58.1 °F 80% 30.03 in 10.0 mi Calm Calm - N/A   Scattered Clouds
11:35 AM 66.6 °F 58.1 °F 74% 30.03 in 10.0 mi SSW 5.8 mph - N/A   Scattered Clouds
11:55 AM 66.7 °F 58.3 °F 74% 30.03 in 10.0 mi SSE 4.6 mph - N/A   Mostly Cloudy
12:15 PM 66.9 °F 58.3 °F 74% 30.02 in 10.0 mi SE 5.8 mph - N/A   Overcast
12:35 PM 66.2 °F 58.3 °F 76% 30.02 in 10.0 mi SSE 6.9 mph - N/A   Overcast
12:55 PM 66.2 °F 59.2 °F 78% 30.02 in 10.0 mi South 3.5 mph - N/A   Overcast
1:15 PM 67.1 °F 59.2 °F 76% 30.01 in 10.0 mi SSE 4.6 mph - N/A   Overcast
1:35 PM 68.9 °F 58.8 °F 70% 30.00 in 10.0 mi SE 8.1 mph - N/A   Mostly Cloudy
1:55 PM 69.8 °F 58.1 °F 66% 29.99 in 10.0 mi SE 5.8 mph - N/A   Scattered Clouds
2:15 PM 70.3 °F 57.6 °F 64% 29.99 in 10.0 mi SSE 9.2 mph - N/A   Scattered Clouds
2:35 PM 68.4 °F 56.7 °F 66% 29.99 in 10.0 mi SSE 8.1 mph - N/A   Mostly Cloudy
2:55 PM 66.4 °F 58.5 °F 76% 29.98 in 10.0 mi SSE 4.6 mph - N/A   Overcast
3:15 PM 65.1 °F 60.1 °F 84% 29.98 in 10.0 mi West 9.2 mph - N/A   Overcast
3:35 PM 65.3 °F 60.1 °F 83% 29.97 in 10.0 mi West 3.5 mph - N/A   Overcast
3:55 PM 65.3 °F 59.9 °F 83% 29.96 in 10.0 mi West 3.5 mph - N/A   Mostly Cloudy
4:15 PM 59.4 °F 57.2 °F 93% 29.98 in 2.5 mi ESE 4.6 mph - 0.07 in   Overcast
4:35 PM 59.9 °F 59.0 °F 97% 29.98 in 10.0 mi Calm Calm - 0.12 in   Overcast
4:55 PM 60.6 °F 59.7 °F 97% 29.98 in 10.0 mi Calm Calm - 0.13 in   Overcast
5:15 PM 60.6 °F 60.1 °F 98% 29.98 in 2.5 mi Calm Calm - 0.04 in   Overcast
5:35 PM 60.3 °F 60.3 °F 100% 29.98 in 4.0 mi Calm Calm - 0.08 in   Overcast
5:55 PM 60.1 °F 60.1 °F 100% 29.97 in 4.0 mi Calm Calm - 0.12 in   Overcast
6:15 PM 60.8 °F 60.8 °F 100% 29.97 in 5.0 mi Calm Calm - 0.01 in   Overcast
6:35 PM 60.8 °F 60.8 °F 100% 29.97 in 10.0 mi Calm Calm - 0.01 in   Overcast
6:55 PM 60.8 °F 60.8 °F 100% 29.97 in 7.0 mi NE 3.5 mph - 0.01 in   Overcast
7:15 PM 60.8 °F 60.8 °F 100% 29.98 in 7.0 mi Calm Calm - N/A   Overcast
7:35 PM 60.6 °F 60.6 °F 100% 29.97 in 4.0 mi Calm Calm - 0.01 in   Overcast
7:55 PM 60.8 °F 60.8 °F 100% 29.97 in 5.0 mi Calm Calm - 0.01 in   Overcast
8:15 PM 60.8 °F 60.8 °F 100% 29.97 in 5.0 mi Calm Calm - 0.01 in   Overcast
8:35 PM 60.4 °F 60.4 °F 100% 29.96 in 5.0 mi NE 3.5 mph - 0.01 in   Overcast
8:55 PM 60.4 °F 60.4 °F 100% 29.96 in 7.0 mi East 3.5 mph - 0.01 in   Overcast
9:15 PM 60.4 °F 60.4 °F 100% 29.96 in 7.0 mi East 3.5 mph - N/A   Overcast
9:35 PM 60.4 °F 60.4 °F 100% 29.96 in 7.0 mi East 4.6 mph - N/A   Overcast
9:55 PM 60.3 °F 60.3 °F 100% 29.96 in 7.0 mi East 3.5 mph - N/A   Overcast
10:15 PM 60.4 °F 60.4 °F 100% 29.99 in 5.0 mi NW 8.1 mph - 0.01 in   Overcast
10:35 PM 60.4 °F 60.4 °F 100% 29.99 in 10.0 mi Calm Calm - 0.02 in   Overcast
10:55 PM 60.1 °F 60.1 °F 100% 29.98 in 10.0 mi NW 3.5 mph - 0.02 in   Overcast
11:15 PM 59.9 °F 59.9 °F 100% 29.98 in 10.0 mi Calm Calm - N/A   Overcast
11:35 PM 59.9 °F 59.9 °F 100% 29.98 in 10.0 mi Calm Calm - N/A   Overcast
11:55 PM 59.5 °F 59.5 °F 100% 29.97 in 10.0 mi Calm Calm - N/A   Overcast